Fort Drum, NY

6:14 PM EDT on March 24, 2017 (GMT -0400)
Wheeler-Sack Army Air Field

Weather History for KGTB - February, 2014

Change the Weather History Date:

Sunday, February 2, 2014

  Actual Average Record
Temperature  
Mean Temperature 29 °F -  
Max Temperature 35 °F 26 °F 48 °F (2006)
Min Temperature 22 °F 9 °F -9 °F (2015)
Degree Days  
Heating Degree Days 36    
Moisture  
Dew Point 28 °F    
Average Humidity 94    
Maximum Humidity 100    
Minimum Humidity 80    
Precipitation  
Precipitation 0.10 in - - ()
Sea Level Pressure  
Sea Level Pressure 29.98 in    
Wind  
Wind Speed 8 mph (West)    
Max Wind Speed 12 mph    
Max Gust Speed -    
Visibility 8 miles    
Events Rain , Snow    
Averages and records for this station are not official NWS values.
T = Trace of Precipitation, MM = Missing Value Source: NWS Daily Summary

Daily Weather History Graph

Daily Weather History Graph

Search for Another Location

Airport or City:

Trip Planner

Search our weather history database for the weather conditions in past years. The results will help you decide how hot, cold, wet, or windy it might be!

Date:

Astronomy

Feb. 02, 2014 Rise Set
Actual Time 7:19 AM EST 5:14 PM EST
Civil Twilight 6:48 AM EST 5:45 PM EST
Nautical Twilight 6:14 AM EST 6:19 PM EST
Astronomical Twilight 5:40 AM EST 6:53 PM EST
Moon 8:36 AM EST (2/2) 9:05 PM EST (2/2)
Length of Visible Light 10h 56m
Length of Day
9h 55m
Waxing Crescent, 11% of the Moon is Illuminated
Feb 2
Waxing Crescent
Feb 6
First Quarter
Feb 14
Full
Feb 22
Last Quarter
Mar 1
New

Hourly Weather History & Observations

Time (EST) Temp. Windchill Dew Point Humidity Pressure Visibility Wind Dir Wind Speed Gust Speed Precip Events Conditions
12:58 AM 35.1 °F 26.9 °F 33.8 °F 95% 29.83 in 10.0 mi SSW 11.5 mph - 0.02 in Rain Light Rain
1:28 AM 35.6 °F 27.5 °F 33.8 °F 93% 29.81 in 10.0 mi SSW 11.5 mph - N/A Rain Light Rain
1:58 AM 34.5 °F 27.9 °F 33.8 °F 97% 29.83 in 10.0 mi SSW 8.1 mph - 0.02 in Rain Light Rain
2:43 AM 33.8 °F 27.0 °F 33.8 °F 100% 29.82 in 9.0 mi SW 8.1 mph - N/A Rain Light Rain
2:58 AM 34.7 °F 27.5 °F 34.3 °F 99% 29.84 in 9.0 mi SW 9.2 mph - 0.03 in Rain Light Rain
3:38 AM 33.8 °F 27.0 °F 33.8 °F 100% 29.82 in 7.0 mi WSW 8.1 mph - N/A Rain Light Rain
3:58 AM 34.0 °F 28.8 °F 33.6 °F 99% 29.86 in 5.0 mi West 5.8 mph - 0.02 in   Overcast
4:48 AM 32.0 °F 24.8 °F 32.0 °F 100% 29.84 in 5.0 mi WSW 8.1 mph - N/A   Overcast
4:58 AM 32.7 °F 25.7 °F 32.7 °F 100% 29.87 in 6.0 mi WSW 8.1 mph - 0.01 in   Overcast
5:48 AM 32.0 °F 24.2 °F 32.0 °F 100% 29.85 in 2.5 mi WSW 9.2 mph - N/A   Overcast
5:58 AM 32.4 °F 24.6 °F 32.4 °F 100% 29.89 in 2.0 mi West 9.2 mph - N/A   Overcast
6:03 AM 32.0 °F 24.2 °F 32.0 °F 100% 29.86 in 1.8 mi WSW 9.2 mph - N/A   Overcast
6:23 AM 32.0 °F 24.8 °F 32.0 °F 100% 29.87 in 1.2 mi West 8.1 mph - N/A   Overcast
6:38 AM 32.0 °F 26.4 °F 32.0 °F 100% 29.86 in 1.0 mi WSW 5.8 mph - N/A   Overcast
6:58 AM 32.0 °F 24.8 °F 32.0 °F 100% 29.91 in 1.2 mi WSW 8.1 mph - N/A   Overcast
7:03 AM 32.0 °F 26.4 °F 32.0 °F 100% 29.88 in 1.2 mi WSW 5.8 mph - N/A   Overcast
7:23 AM 32.0 °F 25.6 °F 32.0 °F 100% 29.89 in 1.0 mi West 6.9 mph - N/A   Overcast
7:28 AM 32.0 °F 27.5 °F 32.0 °F 100% 29.89 in 0.8 mi WSW 4.6 mph - N/A   Overcast
7:38 AM 32.0 °F 27.5 °F 32.0 °F 100% 29.90 in 1.0 mi WSW 4.6 mph - N/A   Overcast
7:43 AM 32.0 °F 26.4 °F 32.0 °F 100% 29.90 in 1.2 mi WSW 5.8 mph - N/A   Overcast
7:58 AM 32.0 °F 27.5 °F 32.0 °F 100% 29.91 in 1.5 mi West 4.6 mph - N/A   Overcast
8:13 AM 32.0 °F 26.4 °F 32.0 °F 100% 29.91 in 3.0 mi West 5.8 mph - N/A   Overcast
8:58 AM 32.0 °F 27.5 °F 32.0 °F 100% 29.94 in 10.0 mi West 4.6 mph - N/A   Overcast
9:58 AM 32.2 °F 28.9 °F 32.2 °F 100% 29.94 in 10.0 mi West 3.5 mph - N/A   Overcast
10:18 AM 32.0 °F 26.4 °F 32.0 °F 100% 29.93 in 10.0 mi West 5.8 mph - N/A   Overcast
10:53 AM 30.2 °F 23.4 °F 30.2 °F 100% 29.96 in 7.0 mi North 6.9 mph - N/A   Overcast
10:58 AM 29.7 °F 23.7 °F 29.7 °F 100% 29.98 in 7.0 mi North 5.8 mph - N/A   Overcast
11:23 AM 28.4 °F 21.2 °F 28.4 °F 100% 29.97 in 10.0 mi North 6.9 mph - N/A   Overcast
11:48 AM 28.4 °F 21.2 °F 28.4 °F 100% 29.94 in 10.0 mi North 6.9 mph - N/A   Overcast
11:58 AM 28.4 °F 22.2 °F 28.2 °F 99% 29.98 in 10.0 mi NNW 5.8 mph - N/A   Overcast
12:58 PM 28.0 °F 22.8 °F 26.8 °F 95% 29.98 in 10.0 mi WNW 4.6 mph - N/A   Overcast
1:25 PM 28.4 °F 23.3 °F 26.6 °F 93% 29.96 in 10.0 mi Variable 4.6 mph - N/A   Overcast
1:30 PM 28.4 °F 24.6 °F 26.6 °F 93% 29.96 in 10.0 mi WNW 3.5 mph - N/A   Overcast
1:50 PM 28.4 °F 22.2 °F 26.6 °F 93% 29.97 in 10.0 mi NW 5.8 mph - N/A   Overcast
1:58 PM 28.2 °F 23.1 °F 26.1 °F 92% 30.00 in 10.0 mi NW 4.6 mph - 0.00 in   Overcast
2:58 PM 28.6 °F 23.5 °F 27.0 °F 94% 30.03 in 7.0 mi West 4.6 mph - 0.00 in Snow Light Snow
3:29 PM 28.4 °F - 26.6 °F 93% 30.01 in 10.0 mi West 2.3 mph - N/A   Overcast
3:58 PM 28.8 °F 22.6 °F 27.0 °F 93% 30.03 in 10.0 mi WNW 5.8 mph - 0.00 in   Overcast
4:08 PM 28.4 °F 22.2 °F 26.6 °F 93% 30.01 in 10.0 mi WNW 5.8 mph - N/A   Overcast
4:58 PM 28.6 °F 21.5 °F 26.2 °F 91% 30.07 in 10.0 mi West 6.9 mph - N/A   Overcast
5:53 PM 28.4 °F 22.2 °F 24.8 °F 86% 30.06 in 10.0 mi West 5.8 mph - N/A   Overcast
5:58 PM 28.2 °F 23.1 °F 25.3 °F 89% 30.09 in 10.0 mi West 4.6 mph - N/A   Overcast
6:58 PM 28.0 °F 24.2 °F 25.7 °F 91% 30.11 in 10.0 mi WSW 3.5 mph - N/A   Overcast
7:18 PM 28.4 °F 23.3 °F 24.8 °F 86% 30.08 in 10.0 mi WSW 4.6 mph - N/A   Overcast
7:29 PM 28.4 °F 23.3 °F 24.8 °F 86% 30.08 in 10.0 mi WSW 4.6 mph - N/A   Overcast
7:39 PM 28.4 °F 20.4 °F 24.8 °F 86% 30.09 in 10.0 mi West 8.1 mph - N/A   Overcast
7:40 PM 28.4 °F 19.7 °F 24.8 °F 86% 30.09 in 10.0 mi West 9.2 mph - N/A   Overcast
7:58 PM 26.6 °F 16.2 °F 24.6 °F 92% 30.13 in 10.0 mi West 11.5 mph - 0.00 in   Overcast
8:28 PM 24.8 °F 16.9 °F 23.0 °F 93% 30.11 in 10.0 mi WSW 6.9 mph - N/A   Overcast
8:58 PM 25.0 °F 15.5 °F 22.1 °F 89% 30.14 in 10.0 mi WSW 9.2 mph - N/A   Overcast
9:33 PM 24.8 °F 16.1 °F 21.2 °F 86% 30.13 in 10.0 mi West 8.1 mph - N/A   Overcast
9:54 PM 24.8 °F 17.9 °F 21.2 °F 86% 30.14 in 10.0 mi West 5.8 mph - N/A   Overcast
9:58 PM 24.6 °F 16.7 °F 20.5 °F 84% 30.17 in 10.0 mi West 6.9 mph - 0.00 in   Overcast
10:00 PM 24.8 °F 17.9 °F 21.2 °F 86% 30.14 in 10.0 mi West 5.8 mph - N/A   Overcast
10:44 PM 24.8 °F 17.9 °F 19.4 °F 80% 30.14 in 10.0 mi Variable 5.8 mph - N/A   Overcast
10:58 PM 24.1 °F 16.0 °F 19.6 °F 83% 30.19 in 10.0 mi West 6.9 mph - 0.00 in   Overcast
11:03 PM 23.0 °F 13.9 °F 19.4 °F 86% 30.16 in 10.0 mi WNW 8.1 mph - N/A Snow Light Snow
11:55 PM 23.0 °F 15.8 °F 17.6 °F 80% 30.16 in 10.0 mi Variable 5.8 mph - N/A   Overcast
11:58 PM 22.5 °F 15.1 °F 17.6 °F 82% 30.19 in 10.0 mi West 5.8 mph - 0.00 in   Overcast